GFSGBSN_sfc_rhum_204.txt.gz
RH
93 95 94 92 91 92 93 93 93 92 91 91 91 91 92 93 94 92 92 95 88 81 76 75 77 80 48 52 51 32 55 50 37 26 26 28 32 34 36 35 33 34 32 30 28 29 29
83 89 94 96 92 92 92 93 93 93 92 91 91 91 92 93 94 93 92 95 88 82 76 75 77 79 46 75 39 31 29 29 27 28 28 29 28 28 30 32 34 33 32 32 30 28 29
82 81 89 92 94 94 91 92 93 94 93 92 91 91 92 93 94 94 94 94 89 81 76 73 74 63 54 64 43 38 36 34 31 27 30 29 28 29 31 32 30 32 36 34 31 30 30
78 82 81 85 93 93 95 92 93 93 94 93 92 91 92 92 95 96 95 95 90 81 77 75 72 66 73 40 40 34 34 32 31 30 30 28 25 28 29 31 35 38 41 42 29 32 27
76 79 79 81 82 93 92 96 93 93 94 94 92 92 92 93 95 97 96 95 89 80 77 77 68 62 72 44 44 37 31 33 30 30 30 20 27 34 38 45 48 50 45 45 37 33 34
72 74 77 80 82 84 93 92 97 95 94 94 94 93 93 93 95 97 96 87 82 74 71 59 50 72 56 50 39 34 35 30 30 30 31 31 41 44 50 48 53 48 53 46 49 37 35
68 71 74 78 81 83 84 92 93 96 96 96 95 93 93 93 95 97 87 84 98 92 75 76 72 64 49 39 36 32 31 27 30 33 40 43 44 49 45 43 39 41 48 44 42 39 45
70 71 72 75 78 77 82 88 93 94 96 96 96 94 93 94 96 92 89 92 72 62 88 71 70 60 48 45 59 43 38 37 35 37 41 50 52 35 39 40 41 45 50 50 44 40 41
70 73 74 73 76 77 78 82 85 93 95 96 95 96 96 95 96 96 94 83 51 58 94 74 65 67 60 52 62 55 45 45 37 40 45 43 41 36 40 48 47 48 50 50 50 44 34
70 70 74 74 76 77 78 77 80 85 92 97 96 96 97 97 98 94 96 63 73 75 99 74 77 63 56 54 68 45 40 41 45 45 41 46 36 37 47 49 46 54 45 44 48 42 50
71 72 73 74 76 78 78 78 81 82 87 92 96 96 98 92 95 96 83 81 88 89 99 50 68 54 56 65 56 50 42 47 54 45 40 52 43 44 42 40 42 47 37 44 46 41 42
73 72 75 76 75 77 78 78 79 81 84 86 94 97 97 97 94 83 75 83 90 99 94 67 64 75 74 67 60 36 58 51 51 60 51 50 38 39 41 37 38 36 38 42 45 42 53
72 69 73 75 76 76 79 78 79 81 84 85 87 97 97 94 95 78 77 91 100 99 65 67 76 66 72 78 72 41 64 57 69 86 83 63 58 35 28 33 33 33 40 55 55 58 55
71 73 76 75 74 75 77 79 79 80 83 87 91 98 92 95 96 81 91 99 99 77 65 64 55 52 72 62 67 53 54 82 57 43 69 86 82 53 36 37 38 35 34 61 58 61 56
74 74 75 76 76 78 78 80 79 80 82 86 92 98 98 99 93 94 97 100 88 71 55 62 57 50 46 44 55 49 47 55 51 42 53 63 57 38 32 35 33 47 43 36 63 80 78
73 71 73 75 77 78 78 81 80 80 81 86 98 97 96 98 92 96 98 98 86 58 57 49 63 64 72 44 44 56 51 45 41 39 45 47 56 41 34 33 32 44 42 60 82 78 66
79 76 74 74 78 80 78 80 79 79 80 84 98 99 95 94 96 99 100 98 89 64 49 57 59 58 62 70 64 80 76 49 35 43 39 40 57 48 39 46 45 51 68 75 76 90 85
82 80 78 76 78 81 80 79 80 80 80 88 95 100 98 96 100 99 100 90 72 72 70 65 69 60 80 75 73 84 79 47 40 42 39 45 56 55 45 49 41 46 55 65 87 87 96
88 82 79 78 78 78 81 79 80 81 80 94 99 100 98 92 100 100 99 96 77 78 83 85 87 62 79 80 97 79 77 52 44 44 49 50 65 67 50 46 46 51 50 59 73 79 90
86 88 80 75 77 78 80 80 80 81 81 94 100 100 100 100 93 90 98 99 99 75 76 83 82 79 90 97 93 96 94 60 56 53 57 55 58 60 73 56 54 59 53 52 65 84 74
89 87 81 79 78 78 79 81 81 81 81 95 100 100 97 98 100 94 80 96 97 100 87 83 95 85 86 98 98 98 82 67 54 52 51 56 67 67 58 51 50 55 58 59 62 61 63
89 86 83 79 77 78 80 82 82 81 81 99 99 100 99 85 96 95 91 97 94 99 95 98 92 87 75 90 78 90 82 72 63 50 53 56 81 61 72 54 49 54 57 58 58 54 52
87 87 82 79 78 77 81 84 83 82 82 100 100 98 94 92 98 98 96 97 93 93 94 76 78 87 95 90 73 69 63 60 61 58 63 83 92 94 93 52 41 68 45 52 60 47 46
90 86 84 79 78 78 81 84 83 82 82 99 98 97 98 99 97 94 93 85 94 83 96 90 80 93 92 63 70 78 68 54 51 53 56 82 85 83 86 49 85 44 37 38 44 44 43
91 86 83 84 78 80 82 83 84 84 80 96 98 98 98 98 96 98 93 96 96 97 98 98 96 74 64 73 95 96 95 92 74 47 52 52 65 88 91 76 51 40 36 42 48 58 42
90 90 91 83 84 84 83 82 84 85 93 96 99 97 98 97 97 90 97 93 97 98 98 97 74 64 66 84 88 92 90 59 53 58 51 54 57 72 91 82 73 40 54 50 54 71 53
87 89 90 92 94 94 91 90 91 90 87 92 98 94 95 99 95 89 93 95 91 87 94 97 84 77 69 90 83 69 56 48 54 54 65 71 80 80 85 84 68 48 58 63 80 66 66
83 81 83 84 88 90 91 92 90 87 84 88 99 95 95 100 100 89 82 90 80 78 91 92 84 86 92 90 86 90 74 62 58 55 57 68 87 92 92 94 89 68 75 77 66 71 63
84 83 82 81 83 83 80 76 78 78 74 74 94 87 88 97 98 73 66 60 52 61 72 90 87 84 89 94 98 94 94 91 70 74 63 78 78 85 81 82 67 76 63 62 62 63 62

GFSGBSN_sfc_rhum_210.txt.gz
RH
71 73 77 81 85 88 87 92 95 93 92 91 90 90 91 90 91 92 95 93 92 92 83 74 75 78 48 41 30 23 58 52 19 18 16 16 18 18 19 17 18 20 16 16 15 15 14
71 71 72 76 79 81 86 88 92 96 94 93 91 91 91 90 91 93 94 94 94 92 83 72 74 74 47 58 26 26 23 20 19 24 23 16 17 17 19 18 18 18 17 16 15 15 14
67 69 67 72 72 77 80 90 91 93 97 94 92 92 91 91 91 93 94 94 95 93 84 71 68 45 60 55 33 27 28 26 24 27 25 18 15 17 19 21 18 18 21 17 17 15 15
70 69 71 76 77 75 79 82 86 89 92 97 95 92 92 91 91 92 94 95 95 92 84 74 67 50 64 40 31 33 29 30 26 27 26 23 17 19 21 18 20 21 21 21 15 16 15
73 71 71 72 72 78 79 80 79 84 87 91 97 95 93 92 92 93 94 96 95 92 79 76 66 60 61 46 44 32 27 29 25 26 26 22 22 23 22 25 24 22 22 20 18 16 15
66 71 71 72 73 74 75 79 79 80 85 89 93 97 96 94 92 93 95 95 95 87 79 63 51 67 54 49 35 30 24 24 22 26 28 26 28 29 26 25 30 24 24 24 20 18 18
62 64 69 71 73 73 73 76 79 81 83 86 91 94 98 97 95 93 95 96 98 99 90 83 64 52 42 37 31 29 24 25 22 25 30 27 29 31 28 27 22 23 23 21 18 17 20
70 69 67 68 71 72 69 72 74 78 80 81 85 92 95 97 97 95 81 92 76 48 71 76 64 52 40 40 45 32 26 27 28 30 26 30 33 24 22 22 25 25 27 26 21 20 24
72 74 71 70 71 70 70 70 71 75 75 80 80 86 94 98 97 98 93 78 45 46 62 50 61 56 47 41 50 34 31 24 26 28 28 30 25 22 26 28 29 27 29 28 26 23 22
72 72 73 73 73 72 71 71 69 70 76 76 80 82 93 98 100 94 96 69 52 63 94 47 55 56 49 44 52 34 29 29 29 27 26 27 22 26 28 29 28 34 25 27 27 30 33
72 72 73 74 75 77 72 70 70 72 73 76 79 80 87 98 96 98 84 67 90 93 99 44 34 33 42 55 30 37 32 35 37 33 27 30 29 29 33 31 28 32 27 29 31 35 34
74 73 73 73 72 76 75 74 72 72 72 75 80 80 84 94 98 89 89 83 93 100 98 51 45 57 55 56 38 34 39 34 29 34 34 30 25 25 27 27 29 28 31 32 32 32 42
83 78 75 74 74 73 75 75 73 72 73 75 77 80 84 87 95 95 95 98 100 98 55 46 68 61 50 58 54 45 48 53 45 56 52 41 40 32 29 34 29 31 37 46 42 40 40
89 87 84 78 74 74 73 74 74 73 73 74 76 80 77 88 89 97 97 100 100 93 66 39 52 53 54 52 54 46 50 51 40 34 28 45 50 37 30 34 38 38 38 52 72 44 34
89 88 86 86 82 75 73 73 73 73 73 74 76 79 81 78 89 98 99 100 97 74 49 53 55 70 61 58 51 48 46 46 44 42 45 43 44 33 34 29 30 47 47 38 65 56 52
81 82 83 86 84 81 75 74 74 73 74 75 86 90 76 67 82 99 100 97 98 58 41 51 69 60 72 59 57 56 50 42 46 44 36 47 58 35 34 32 32 47 40 78 89 76 62
81 82 83 82 85 84 79 75 74 74 74 76 95 95 56 66 88 99 99 98 87 59 39 53 50 59 51 55 50 62 48 38 41 47 42 34 44 37 31 39 44 47 60 58 55 62 71
84 83 84 88 83 85 85 78 75 74 74 83 91 99 54 70 100 97 99 93 67 59 40 43 41 41 47 50 55 60 51 42 33 42 55 40 51 54 37 29 26 31 45 53 98 97 71
84 84 83 83 88 84 87 85 80 75 74 86 93 92 73 76 97 96 83 91 72 58 47 46 44 39 43 48 71 54 47 39 25 36 47 45 72 82 61 44 32 35 34 40 49 58 74
85 86 92 92 87 84 86 88 82 73 75 89 91 98 98 93 72 81 86 98 98 54 46 42 41 39 48 55 52 61 54 45 32 31 55 46 53 55 54 39 37 46 34 34 48 87 55
87 87 94 91 89 84 87 88 81 74 77 90 92 98 74 99 99 81 84 89 97 91 54 43 50 46 53 70 62 60 49 58 42 51 41 44 64 55 50 38 32 33 36 34 41 47 54
88 88 88 91 87 86 90 87 79 78 79 92 99 99 93 57 55 93 82 91 96 86 70 66 62 48 47 63 58 62 59 65 60 50 48 46 74 62 64 47 39 40 33 32 32 33 32
87 85 86 89 90 90 88 85 79 78 79 94 89 77 88 75 70 84 86 96 92 73 66 52 51 56 61 55 50 56 54 56 55 58 56 72 80 68 91 68 54 77 47 39 45 30 31
89 85 85 89 89 88 88 81 78 77 72 75 65 69 96 89 86 74 82 89 86 69 76 60 54 60 72 63 66 76 94 88 66 66 66 88 94 95 91 66 95 41 28 32 35 34 30
90 85 83 85 86 87 84 78 78 77 72 55 68 73 89 100 80 86 78 91 77 68 75 75 70 81 64 70 95 98 97 98 100 99 84 72 88 93 90 78 44 39 28 39 44 47 31
89 92 81 80 83 84 83 81 79 78 77 60 81 70 84 90 90 76 72 86 97 98 99 100 86 73 78 99 98 96 89 80 88 91 99 89 74 77 93 93 76 37 22 20 25 39 23
84 90 92 82 84 82 82 82 80 78 78 75 73 75 82 100 89 99 91 81 96 94 97 100 100 100 96 96 95 89 88 64 85 77 87 92 92 91 84 78 51 28 21 18 43 41 29
80 85 90 92 91 82 82 82 82 80 79 86 84 79 90 100 95 99 97 84 94 77 97 100 97 98 99 100 93 92 83 69 76 66 72 74 87 88 87 92 81 29 25 31 32 32 31
78 79 82 89 92 92 82 83 84 83 80 83 99 91 91 96 100 99 96 93 66 50 80 96 89 82 94 97 88 83 84 72 64 81 49 76 58 70 70 64 43 34 34 31 27 34 35

GFSGBSN_sfc_rhum_216.txt.gz
RH
72 74 73 74 73 73 67 71 74 85 89 90 92 92 95 91 90 91 93 93 92 93 92 91 84 81 60 50 39 23 67 51 21 18 17 16 17 17 19 16 14 15 14 13 12 12 12
70 70 72 74 76 73 67 71 71 77 82 84 87 90 92 94 92 91 93 93 93 94 92 91 82 82 61 65 25 19 20 19 19 17 17 16 16 14 17 17 17 15 14 14 13 13 12
64 68 72 76 78 77 76 77 78 78 80 81 84 88 90 91 95 93 92 94 94 95 92 90 82 61 63 53 25 20 20 22 19 18 19 16 15 16 17 20 16 16 19 16 15 14 14
63 66 65 72 75 79 80 79 80 78 78 80 83 87 87 88 92 96 93 94 95 94 92 90 78 63 75 34 32 33 29 29 21 21 17 16 18 19 18 17 19 21 20 24 17 14 13
62 64 63 68 72 75 77 80 80 78 78 77 81 84 90 86 88 94 96 94 95 94 92 85 76 73 66 37 42 34 30 30 28 25 25 21 23 26 21 25 27 24 29 23 19 13 13
59 63 64 67 70 73 74 76 80 79 78 80 80 80 86 90 89 92 97 97 95 96 91 74 67 77 57 50 33 33 30 32 29 28 29 28 28 31 28 26 35 28 26 24 23 15 13
60 60 60 66 68 67 69 73 76 79 79 79 80 80 83 91 92 95 98 100 100 100 98 89 73 57 30 36 26 32 30 31 33 31 36 32 38 37 30 27 23 21 22 21 16 14 15
70 66 62 63 67 67 65 69 73 75 78 78 77 82 83 85 89 91 97 97 79 64 92 85 62 56 42 30 35 32 26 34 40 43 31 33 44 30 24 23 23 24 26 25 19 15 16
77 75 72 68 67 68 67 68 70 73 76 77 76 77 82 84 90 91 94 91 74 70 91 65 73 60 48 38 42 32 29 29 34 37 30 36 30 25 26 25 25 24 27 27 24 18 17
77 80 80 75 75 74 74 72 71 72 75 76 76 78 79 85 66 71 86 73 83 89 100 85 73 66 46 40 44 29 25 28 31 35 29 28 24 22 25 25 23 28 20 21 23 24 29
77 79 80 79 83 81 78 76 74 73 72 75 76 76 77 80 50 65 74 80 90 100 99 71 58 40 41 48 32 31 25 28 34 31 29 31 27 28 26 23 22 25 20 20 22 26 27
78 76 80 81 80 82 83 82 79 76 74 73 74 74 75 71 74 57 54 85 99 100 97 79 41 52 58 49 46 28 31 26 26 29 28 27 18 21 22 19 19 20 23 24 26 30 44
78 79 80 81 81 81 80 82 84 82 77 74 73 74 74 58 63 55 70 94 100 99 91 80 50 43 59 60 54 47 43 40 41 47 42 26 24 18 17 22 20 23 32 46 52 49 45
78 79 80 81 80 79 79 79 82 85 82 76 74 74 72 63 56 59 86 100 99 86 96 55 40 37 61 55 57 53 53 49 35 34 35 40 38 22 17 22 27 28 31 52 61 53 43
78 78 79 80 79 80 80 81 80 82 85 80 75 79 79 71 66 73 94 99 92 96 73 56 38 48 61 56 52 57 55 54 44 36 46 41 37 21 20 21 24 35 37 30 47 44 57
78 79 80 80 78 80 82 82 82 81 85 83 93 88 76 68 73 86 100 97 93 75 63 46 52 62 69 60 57 62 59 46 44 38 35 42 55 27 22 22 25 28 27 52 55 92 76
79 80 80 79 77 81 82 83 82 82 82 85 98 99 68 66 80 98 97 94 75 52 62 68 52 78 50 54 52 60 54 43 41 41 39 42 59 50 29 30 34 36 42 40 49 71 72
78 79 78 80 80 80 83 83 83 82 82 91 98 100 61 66 99 98 96 76 67 47 49 76 67 54 47 45 55 55 54 50 36 41 44 41 56 76 50 31 23 31 40 40 90 96 75
77 79 78 80 85 82 81 82 82 83 84 97 99 96 59 77 98 98 73 72 75 60 47 55 85 65 46 43 57 49 50 38 31 39 49 45 88 98 76 56 36 38 38 39 44 62 74
78 79 79 85 85 82 84 85 85 83 84 97 99 99 96 92 78 72 82 68 75 68 55 42 67 71 63 48 46 55 51 43 41 38 71 59 85 77 76 56 51 53 51 48 48 84 70
78 81 81 87 84 84 87 85 87 88 85 96 100 98 74 98 99 79 66 54 59 75 61 55 54 79 83 63 57 59 54 54 47 78 73 70 91 78 54 72 54 41 46 45 58 57 75
78 81 83 87 84 85 91 91 93 90 90 96 99 96 63 59 61 88 72 72 62 57 76 69 79 65 81 75 56 69 60 60 64 79 82 76 83 71 75 63 79 86 62 39 48 56 52
79 81 83 87 86 87 92 95 94 92 86 95 61 43 60 63 66 79 83 67 55 50 58 74 67 70 88 80 54 46 51 53 57 74 85 86 89 86 95 63 78 98 84 60 42 33 36
79 81 83 85 88 86 94 93 91 87 78 90 51 51 76 84 74 64 50 49 47 47 61 47 68 74 63 64 71 65 64 66 51 56 63 81 85 94 97 95 99 50 32 46 46 35 32
80 82 82 82 90 84 93 90 88 81 75 60 53 55 72 86 63 59 54 49 43 43 54 52 47 53 55 80 100 100 100 100 100 74 62 63 85 99 96 96 57 44 32 34 46 51 36
80 81 82 80 85 85 89 91 87 90 83 90 76 60 80 86 80 43 58 53 78 68 71 66 47 61 76 98 100 99 96 98 99 100 90 72 78 83 100 96 90 50 29 26 30 55 34
81 81 83 79 79 88 81 91 89 87 77 76 66 74 65 95 89 77 91 77 63 72 79 82 85 84 93 100 99 100 90 65 94 95 98 98 99 96 94 93 73 32 25 27 58 60 38
82 82 83 81 76 84 89 81 84 86 87 83 87 65 81 94 85 87 86 93 98 100 99 100 86 99 100 100 100 100 100 76 74 79 88 90 96 97 99 95 87 26 29 46 45 35 38
83 82 83 82 75 78 87 86 81 80 78 77 85 85 84 96 100 75 66 62 62 67 92 95 100 82 99 100 100 100 100 97 64 89 59 78 65 76 72 74 54 29 36 40 36 36 36

GFSGBSN_sfc_rhum_219.txt.gz
RH
64 70 74 73 72 74 74 74 73 76 82 84 85 86 87 86 89 95 94 94 93 91 92 92 90 84 72 75 60 32 66 53 28 26 25 25 24 25 28 24 23 24 20 18 16 17 18
67 66 67 70 71 72 73 76 78 79 79 81 86 87 87 87 88 89 95 95 94 93 93 92 90 83 81 96 38 31 30 26 25 24 25 24 23 21 24 24 28 24 23 22 19 19 19
60 65 66 70 72 72 72 79 81 80 82 81 83 88 89 88 87 89 90 96 95 94 93 93 90 73 85 76 41 36 36 28 26 24 26 22 21 26 25 28 22 23 28 25 21 22 21
61 60 60 69 72 73 76 78 80 79 80 80 80 83 90 88 86 88 91 96 95 94 93 93 89 81 92 46 47 45 41 42 36 28 29 27 24 31 32 28 25 28 31 38 24 22 19
61 60 60 66 68 72 74 75 77 76 79 79 80 82 86 89 88 89 93 96 97 95 94 92 87 90 81 49 58 46 42 41 35 34 31 24 31 38 34 41 40 36 42 40 30 21 21
68 65 64 67 68 70 71 73 75 77 78 81 79 81 83 88 91 90 93 95 94 99 96 84 75 92 68 67 46 44 38 39 39 37 38 40 45 47 43 45 48 39 41 33 33 24 22
73 71 68 65 68 68 68 69 73 75 77 79 81 79 81 86 92 92 97 99 100 100 99 82 79 65 42 43 35 40 38 42 43 50 52 45 56 57 45 38 31 30 33 34 28 23 25
79 77 75 72 69 67 64 66 69 70 74 77 79 81 79 81 86 91 94 99 88 92 97 83 55 74 51 42 53 42 35 52 54 67 54 49 58 43 34 34 35 34 37 36 28 24 24
73 81 78 75 74 72 70 70 71 71 72 72 75 79 80 80 83 93 95 82 69 88 99 86 79 65 64 55 64 52 38 44 51 61 56 56 43 35 37 38 37 36 37 35 33 27 25
73 75 74 73 73 73 74 76 78 76 73 72 74 76 80 82 87 85 85 68 71 86 100 91 93 79 60 52 62 43 38 40 48 56 55 53 38 34 40 42 36 42 29 28 28 32 40
71 72 72 72 73 79 80 81 82 83 80 76 74 74 77 77 76 77 75 78 81 96 99 86 77 56 60 68 43 44 35 43 47 46 47 49 39 40 38 40 32 38 28 28 27 32 36
69 70 71 74 78 79 81 82 81 81 83 83 78 74 76 84 87 74 64 79 90 100 98 94 68 76 76 70 60 38 40 38 37 40 40 41 31 31 33 29 27 25 28 28 29 34 47
74 74 74 77 78 79 80 81 81 81 81 82 83 79 77 70 84 69 70 90 96 98 77 85 76 62 76 82 73 58 51 51 62 62 56 42 38 29 27 32 28 28 33 65 83 67 70
73 75 76 77 79 80 80 81 81 81 80 81 83 83 82 71 67 73 90 99 98 70 83 66 64 57 82 66 73 69 62 62 46 48 54 56 59 38 29 32 34 32 33 61 88 81 61
69 74 76 78 79 80 79 79 79 80 82 82 82 95 96 82 72 78 92 98 84 61 53 55 67 67 75 66 62 70 71 75 63 47 62 55 52 29 27 26 24 31 37 34 58 54 72
67 70 76 77 78 79 78 80 82 82 83 84 98 98 96 74 75 92 97 94 77 62 39 53 64 61 73 71 72 74 74 60 69 50 40 46 69 34 25 23 23 26 31 47 83 93 81
71 73 76 78 78 78 80 82 82 83 83 84 99 99 89 71 88 98 98 89 72 52 56 61 62 53 59 70 69 73 66 54 56 57 43 44 57 64 46 33 33 34 46 51 58 86 86
76 77 76 77 79 78 81 83 83 83 83 90 98 100 90 73 100 98 96 79 58 46 42 57 68 76 52 54 69 68 67 58 46 48 62 47 56 66 54 47 38 30 38 46 79 86 82
77 77 77 77 79 79 80 84 81 79 81 97 99 98 83 83 98 98 81 71 63 53 50 56 83 81 71 75 72 62 64 46 46 50 55 51 78 83 81 63 61 66 57 36 52 85 84
77 77 78 78 79 81 79 84 82 81 82 97 99 99 100 99 88 87 87 79 83 55 50 43 75 74 91 93 84 79 60 52 46 47 53 51 88 70 72 60 54 68 58 41 44 79 76
77 78 78 79 77 80 80 84 77 84 88 98 100 98 90 98 99 83 69 67 74 76 57 46 59 73 92 98 95 95 86 58 50 52 55 54 75 82 61 69 50 48 49 42 46 48 74
78 78 79 79 79 80 84 79 86 90 88 99 100 99 89 76 84 85 70 74 70 66 58 71 70 58 69 94 94 85 84 89 64 69 57 61 77 80 86 71 64 60 50 62 56 55 61
79 79 79 80 80 80 86 88 86 91 92 99 99 77 73 82 84 89 80 67 68 55 53 47 54 60 66 69 73 61 70 94 90 63 72 73 91 92 90 78 86 100 79 69 71 60 63
81 81 80 80 82 81 87 90 87 91 91 96 94 71 79 97 90 88 64 61 63 57 62 49 48 56 53 48 73 80 91 86 90 64 58 79 78 87 92 94 99 77 52 59 64 56 55
82 82 81 81 83 80 87 91 89 90 86 93 74 60 86 97 81 72 63 64 58 54 58 55 50 59 60 79 95 99 100 100 100 81 75 67 87 99 98 96 83 60 59 69 69 66 43
80 80 82 81 83 81 80 89 87 89 86 94 93 82 91 91 87 54 64 61 76 77 72 63 49 53 78 96 99 98 92 98 100 99 76 77 78 78 100 98 95 61 42 52 52 73 45
79 80 81 82 83 83 79 83 87 87 86 92 91 82 85 97 96 77 89 84 79 87 89 83 81 76 74 98 99 96 94 90 98 98 99 97 97 96 98 98 89 52 32 33 62 58 40
80 81 81 82 83 83 78 76 86 88 87 93 97 91 97 100 98 90 91 92 97 100 98 98 92 92 97 98 99 99 99 99 100 86 91 90 96 98 99 99 94 44 35 46 46 43 52
81 82 81 82 83 84 78 78 84 87 88 89 98 96 95 100 100 91 83 80 78 77 96 99 100 98 99 98 99 100 99 100 99 99 74 94 80 87 83 74 65 33 42 48 40 46 50

GFSGBSN_sfc_rhum_225.txt.gz
RH
70 68 61 59 59 64 70 69 76 81 84 85 84 83 85 88 84 83 88 90 91 92 96 91 90 92 84 94 74 39 69 55 38 31 31 31 37 38 38 34 34 34 31 27 26 27 28
72 71 72 66 63 61 62 65 72 79 79 82 85 86 86 85 88 88 84 87 89 90 93 95 92 86 93 94 48 45 50 47 39 38 34 32 32 34 35 36 34 31 30 30 31 32 28
75 76 74 72 69 65 63 69 70 73 76 79 82 84 85 86 86 87 85 83 86 88 93 95 94 82 86 74 52 53 53 53 51 49 51 37 31 37 38 40 34 32 35 33 27 31 28
71 76 75 75 74 74 72 72 71 68 72 73 75 83 84 84 87 90 89 87 88 88 90 94 96 86 87 55 48 48 51 52 45 46 44 42 40 40 40 36 37 38 41 45 29 33 30
68 68 73 76 76 77 76 74 73 68 68 73 76 80 84 84 86 88 90 91 90 88 90 94 99 91 86 60 69 53 56 50 36 41 45 35 42 44 46 51 53 49 54 46 33 28 32
64 67 68 71 77 77 79 77 76 74 74 75 74 78 81 85 85 86 89 91 88 88 90 92 95 93 77 70 61 58 42 52 53 52 53 52 53 57 62 57 59 48 49 41 42 30 35
63 63 67 68 70 73 73 76 80 81 76 74 75 76 80 82 84 84 91 88 95 100 99 91 89 73 52 51 44 53 48 51 58 59 67 62 68 69 55 44 40 38 40 45 43 30 38
60 62 64 66 66 68 69 71 74 79 86 82 76 74 77 80 80 82 90 79 85 79 87 70 78 80 53 40 50 51 46 61 70 66 60 62 75 51 45 43 44 45 48 50 40 33 34
58 58 65 65 66 67 66 69 70 74 76 78 86 84 77 80 83 89 90 80 72 62 88 71 64 78 71 56 65 51 52 57 66 72 61 66 52 45 46 48 50 49 50 48 46 34 32
56 64 64 65 66 67 68 71 71 72 73 77 79 82 90 82 86 92 94 76 79 77 93 72 81 83 74 58 68 40 41 53 66 70 60 59 48 49 50 54 49 58 41 41 41 45 53
60 59 63 65 66 68 69 71 70 72 73 74 80 80 83 91 84 96 76 79 79 93 98 51 61 65 72 79 59 57 37 44 72 66 61 61 62 62 61 52 44 52 38 40 41 45 54
58 62 62 63 64 66 67 69 70 73 72 74 79 82 84 92 98 77 80 81 93 100 93 72 70 94 90 82 71 57 54 42 45 61 62 57 47 49 51 45 42 40 42 40 49 56 72
60 60 61 62 63 65 65 66 69 73 74 75 80 82 85 90 94 85 83 92 99 97 60 82 77 76 77 81 82 70 74 69 68 87 92 70 65 49 47 55 44 47 55 78 85 84 76
60 60 61 61 62 64 65 66 71 75 75 78 83 83 85 93 90 90 96 100 98 72 68 51 70 65 79 62 68 76 75 84 61 65 76 82 85 66 51 52 56 51 54 70 73 63 56
60 61 62 62 62 64 66 68 70 77 79 80 84 96 97 89 94 96 99 98 85 62 43 36 38 56 75 69 72 73 84 78 70 57 78 78 73 47 49 45 42 52 61 43 65 79 80
64 64 63 64 64 65 67 68 70 72 77 79 98 98 93 82 91 98 99 89 82 48 36 37 42 54 77 64 81 83 78 66 67 61 53 65 81 48 45 43 40 43 39 66 65 90 70
67 67 66 66 66 67 66 68 70 73 75 78 98 100 92 84 97 100 97 90 66 44 40 41 42 45 40 49 82 72 67 59 63 63 56 59 68 67 47 54 56 51 54 51 62 76 66
69 68 67 67 67 67 68 68 71 73 74 87 98 100 96 86 100 99 95 79 55 51 48 53 56 51 47 43 43 78 84 76 56 60 71 60 68 79 61 49 38 39 48 46 72 68 63
70 69 67 67 67 68 69 70 73 76 75 99 100 99 97 93 98 96 82 75 66 54 50 59 61 55 50 50 60 57 62 74 65 67 66 60 81 95 82 63 53 60 44 42 44 69 58
71 70 69 68 68 68 69 70 74 75 77 98 100 99 100 100 93 83 85 76 82 63 51 46 48 51 61 71 64 74 60 63 62 69 69 60 73 89 86 66 57 77 76 42 45 66 61
72 70 71 70 70 67 68 70 73 76 76 98 99 95 92 96 97 97 78 70 77 83 60 50 52 53 55 66 67 68 67 72 59 61 83 77 86 71 68 56 51 54 64 58 50 48 62
68 68 73 70 68 66 68 69 73 76 76 99 100 100 98 82 75 94 86 81 75 67 64 71 60 50 51 64 56 58 50 56 53 62 94 97 96 92 91 64 58 58 58 60 49 48 50
69 66 67 66 66 66 67 70 76 75 79 100 98 94 99 94 96 98 89 83 72 61 64 55 61 59 60 51 46 50 61 70 88 95 93 99 99 98 95 67 71 84 64 64 65 53 47
70 68 66 66 65 66 69 74 79 78 78 98 98 99 100 96 94 91 78 70 71 64 67 62 53 64 52 40 52 61 64 60 64 74 92 99 97 98 94 93 99 72 49 60 57 57 48
70 70 68 64 66 68 72 77 79 81 76 95 97 100 100 98 94 84 82 73 70 64 67 59 58 49 55 58 79 88 95 85 72 61 62 79 92 96 96 92 81 68 56 62 74 72 46
71 69 66 66 68 72 76 78 79 79 77 90 97 97 100 99 89 84 92 96 95 95 92 76 53 54 66 94 98 96 94 76 78 71 52 66 81 91 92 96 93 62 47 46 52 78 43
72 70 69 69 69 73 76 79 80 78 76 89 98 95 99 100 97 84 98 93 88 93 88 93 78 86 71 97 97 96 88 69 77 72 84 86 84 95 96 95 78 62 65 46 81 72 44
74 73 73 70 72 73 75 80 81 79 80 92 97 95 100 100 99 96 84 96 91 88 95 93 86 95 99 98 97 96 98 85 82 64 72 67 77 94 96 97 95 79 64 69 53 42 46
71 74 72 74 73 74 76 81 83 78 88 85 99 94 97 100 100 98 91 86 73 69 81 92 87 92 93 98 99 96 95 96 77 80 54 78 70 77 89 90 93 78 85 59 52 46 48

GFSGBSN_sfc_rhum_231.txt.gz
RH
68 68 70 71 74 74 73 71 73 73 74 76 76 75 75 74 76 79 89 88 82 80 83 87 91 91 82 77 56 41 74 61 36 35 29 30 30 31 33 30 28 31 29 27 25 24 24
66 64 68 69 71 72 75 75 75 77 76 75 77 78 77 76 75 77 83 90 87 83 81 85 89 96 86 90 42 43 47 42 34 32 32 28 29 29 31 31 29 27 27 25 25 23 24
61 63 64 66 70 70 72 78 77 78 75 75 76 76 78 75 74 77 77 83 89 88 81 82 87 92 93 73 41 49 49 50 47 42 38 35 29 31 33 36 30 30 31 30 29 27 25
61 61 60 63 66 68 70 72 76 78 79 74 71 76 77 79 80 80 81 85 86 86 85 81 83 90 93 58 50 52 48 49 45 47 46 41 41 37 36 33 34 34 34 35 27 28 26
57 57 58 60 65 66 68 69 71 74 74 81 80 78 78 79 81 82 82 82 84 80 78 85 88 94 89 66 64 53 47 45 40 45 47 36 42 46 41 42 42 41 40 40 31 26 26
61 58 59 60 64 64 66 66 68 72 72 73 78 82 80 80 80 81 82 81 78 79 80 82 87 87 73 82 64 55 45 45 40 44 48 50 51 49 48 47 50 45 48 40 32 27 29
55 57 58 57 62 57 63 66 68 70 72 72 74 77 81 82 79 80 84 87 81 93 83 72 83 84 69 63 52 61 50 54 45 45 50 60 60 63 47 44 39 34 35 36 34 28 30
56 53 57 61 63 62 62 65 68 69 72 71 75 76 78 81 84 79 84 85 72 75 91 75 76 82 73 72 89 58 47 61 61 60 46 60 64 45 43 45 45 44 44 40 36 31 33
58 58 54 57 62 63 61 61 65 67 69 72 74 73 76 79 84 87 88 80 68 74 99 69 61 70 69 66 80 78 54 53 61 63 51 45 36 39 46 52 53 48 48 43 41 34 33
57 58 58 57 57 56 57 61 63 64 66 72 73 74 80 83 86 87 89 73 79 81 96 65 65 50 55 64 83 64 58 54 58 63 54 45 30 37 44 47 49 54 42 44 42 45 45
58 57 57 58 58 59 60 60 59 60 63 70 72 74 79 81 91 90 76 80 82 88 98 47 51 39 42 73 72 70 69 61 71 57 60 73 55 43 46 44 44 46 37 44 46 50 47
62 58 58 57 58 59 59 60 61 63 65 68 71 74 78 89 96 83 79 80 87 100 92 54 52 70 68 66 57 50 66 73 76 69 55 52 39 40 39 39 45 43 45 45 47 49 63
69 64 61 61 61 60 61 62 62 62 63 67 72 74 81 88 87 91 92 92 99 96 49 48 63 62 68 73 71 56 81 96 93 98 98 76 57 38 40 46 41 48 60 98 98 92 66
72 73 66 66 66 65 64 64 65 65 63 68 75 79 82 92 91 93 96 100 98 72 61 44 45 57 77 66 70 69 74 91 82 81 83 94 97 70 49 47 50 55 55 82 79 64 50
65 71 74 67 66 65 65 65 66 67 68 71 75 94 96 94 95 95 100 98 87 59 50 42 38 49 55 62 75 76 79 89 75 78 92 96 95 56 48 44 42 58 77 68 80 72 79
62 68 70 73 72 68 66 66 66 66 68 71 96 90 87 81 94 98 100 94 76 46 36 36 40 46 53 51 65 91 77 82 81 74 66 65 87 51 56 47 44 48 54 96 96 98 86
56 63 68 68 71 74 69 66 66 65 68 72 98 97 88 92 97 100 98 84 65 50 43 44 44 38 42 37 34 52 87 65 65 68 71 68 82 78 64 70 73 68 68 82 81 85 71
61 62 62 68 68 70 73 70 67 64 67 82 94 100 91 94 100 100 94 69 58 54 49 52 48 49 44 37 37 46 53 65 75 90 90 79 87 98 85 56 53 56 63 77 92 98 78
62 62 64 62 64 68 66 71 70 63 65 97 99 98 93 95 99 97 84 90 66 61 56 55 55 49 45 44 48 42 40 30 27 62 92 96 95 98 78 69 61 67 56 55 61 68 70
74 65 61 61 62 68 65 67 65 61 65 95 98 99 99 100 91 88 90 93 95 65 62 59 57 53 53 73 52 51 46 36 43 39 70 84 100 100 90 87 90 73 71 54 58 82 64
64 65 64 62 63 71 63 59 63 62 66 94 100 96 92 97 95 96 88 73 75 78 65 62 70 66 63 76 72 69 56 50 43 44 65 91 96 96 94 89 83 86 97 85 69 63 74
69 66 71 64 66 75 66 66 60 59 67 98 99 99 93 95 94 92 90 93 91 89 91 82 78 61 66 75 65 66 58 62 53 46 53 78 81 70 86 66 52 86 66 83 84 82 68
66 67 73 66 69 73 71 69 61 64 70 95 91 86 95 86 95 97 87 76 76 65 72 65 63 67 74 63 54 51 50 52 56 60 63 83 78 79 82 51 77 90 73 57 84 88 73
65 73 72 67 73 68 67 63 63 66 69 96 94 94 99 93 87 85 66 68 73 73 79 63 60 73 61 48 52 54 56 53 58 62 60 75 81 81 85 71 90 46 35 58 88 81 84
63 71 74 70 74 73 69 71 72 69 67 96 92 97 99 96 88 76 72 77 71 70 74 71 66 60 55 62 95 97 95 93 78 66 65 64 77 86 91 76 59 47 34 36 47 63 51
66 62 67 68 71 74 68 71 70 70 71 91 90 91 98 98 84 73 79 73 86 84 84 79 63 58 67 99 98 95 89 84 83 79 57 57 66 80 82 87 80 40 24 26 27 48 29
72 67 64 67 72 69 69 70 73 74 71 86 91 88 98 98 83 90 95 87 76 83 94 90 92 97 91 98 96 91 82 53 72 80 93 85 90 94 90 88 63 37 28 26 58 52 30
72 68 66 66 66 64 65 69 73 69 64 76 92 87 99 99 91 82 78 95 97 97 98 99 100 100 99 98 96 91 88 73 71 46 60 80 90 90 90 94 90 33 33 47 37 33 32
71 68 67 66 66 66 65 67 66 63 65 72 98 88 92 100 99 89 78 70 75 91 99 100 100 95 92 95 94 90 93 90 67 72 46 68 63 72 70 71 52 38 40 40 32 35 62